THY3TW LTAC-LTFM

Flight info

Callsign THY3TW
Flight time 0h 46m
Altitude 28000
Route YAVRU A4 ERSEN
Aircraft A320/M-SDE3FGHIRWY/LB1

Departure

Time 2026-05-04 15:59
Airport Esenboğa International Airport (LTAC)

Arrival

Time 2026-05-04 16:46
Airport İstanbul Airport (LTFM)
Time Latitude Longitude Altitude Speed Heading
2026-05-04 15:30 40.11554 32.99036 3113 ft 0 kts 138°
2026-05-04 15:50 40.11561 32.99028 3113 ft 4 kts 140°
2026-05-04 15:50 40.11583 32.99008 3113 ft 4 kts 155°
2026-05-04 15:50 40.11608 32.98999 3113 ft 4 kts 188°
2026-05-04 15:51 40.11625 32.99009 3113 ft 1 kts 232°
2026-05-04 15:51 40.11626 32.99010 3113 ft 0 kts 232°
2026-05-04 15:56 40.11625 32.99009 3113 ft 1 kts 232°
2026-05-04 15:56 40.11620 32.98994 3113 ft 3 kts 252°
2026-05-04 15:56 40.11634 32.98934 3113 ft 12 kts 298°
2026-05-04 15:56 40.11687 32.98833 3112 ft 13 kts 306°
2026-05-04 15:57 40.11715 32.98783 3112 ft 0 kts 306°
2026-05-04 15:57 40.11722 32.98771 3112 ft 4 kts 306°
2026-05-04 15:57 40.11745 32.98729 3113 ft 7 kts 306°
2026-05-04 15:57 40.11790 32.98651 3113 ft 14 kts 307°
2026-05-04 15:58 40.11853 32.98541 3113 ft 16 kts 307°
2026-05-04 15:58 40.11934 32.98516 3113 ft 13 kts 25°
2026-05-04 15:58 40.11954 32.98532 3113 ft 0 kts 32°
2026-05-04 15:58 40.12032 32.98604 3114 ft 41 kts 36°
2026-05-04 15:59 40.12445 32.99001 3119 ft 103 kts 36°
2026-05-04 15:59 40.13160 32.99681 3125 ft 149 kts 36°
2026-05-04 15:59 40.14061 33.00547 3456 ft 165 kts 36°
2026-05-04 15:59 40.14957 33.01520 4127 ft 170 kts 38°
2026-05-04 16:00 40.15862 33.02520 4820 ft 171 kts 34°
2026-05-04 16:00 40.16832 33.03543 5224 ft 189 kts 35°
2026-05-04 16:00 40.17928 33.04684 5471 ft 214 kts 35°
2026-05-04 16:00 40.19160 33.05962 5847 ft 237 kts 35°
2026-05-04 16:01 40.20495 33.07298 6583 ft 244 kts 28°
2026-05-04 16:01 40.22109 33.07832 7389 ft 244 kts 353°
2026-05-04 16:01 40.23731 33.06995 7899 ft 264 kts 322°
2026-05-04 16:01 40.25029 33.05238 8633 ft 274 kts 309°
2026-05-04 16:02 40.26153 33.03185 9409 ft 281 kts 305°
2026-05-04 16:02 40.27253 33.01027 10116 ft 288 kts 304°
2026-05-04 16:02 40.29720 32.96420 10730 ft 332 kts 307°
2026-05-04 16:03 40.31132 32.93967 11251 ft 342 kts 308°
2026-05-04 16:03 40.32609 32.91489 11945 ft 347 kts 308°
2026-05-04 16:03 40.34057 32.88950 12690 ft 350 kts 302°
2026-05-04 16:03 40.35129 32.86065 13414 ft 355 kts 289°
2026-05-04 16:04 40.35781 32.82920 13997 ft 361 kts 284°
2026-05-04 16:04 40.36984 32.76446 15192 ft 369 kts 284°
2026-05-04 16:04 40.37585 32.73200 15782 ft 373 kts 284°
2026-05-04 16:05 40.38209 32.69835 16361 ft 378 kts 284°
2026-05-04 16:05 40.38826 32.66519 17002 ft 380 kts 284°
2026-05-04 16:05 40.40273 32.59796 18255 ft 385 kts 288°
2026-05-04 16:06 40.41088 32.56448 18849 ft 387 kts 289°
2026-05-04 16:06 40.43330 32.47371 20367 ft 394 kts 289°
2026-05-04 16:07 40.44423 32.42802 21081 ft 398 kts 289°
2026-05-04 16:07 40.46883 32.32269 22640 ft 406 kts 288°
2026-05-04 16:08 40.47713 32.28705 23111 ft 410 kts 292°
2026-05-04 16:08 40.50244 32.17859 23924 ft 416 kts 292°
2026-05-04 16:09 40.51936 32.10582 23934 ft 416 kts 292°
2026-05-04 16:09 40.53619 32.03302 23942 ft 416 kts 292°
2026-05-04 16:10 40.55307 31.95995 23948 ft 420 kts 294°
2026-05-04 16:11 40.57843 31.84952 23950 ft 421 kts 294°
2026-05-04 16:11 40.58691 31.81265 23959 ft 420 kts 294°
2026-05-04 16:12 40.61404 31.70320 23931 ft 419 kts 296°
2026-05-04 16:12 40.64162 31.59348 24204 ft 424 kts 296°
2026-05-04 16:13 40.65996 31.51923 25077 ft 430 kts 296°
2026-05-04 16:13 40.67840 31.44368 25873 ft 436 kts 296°
2026-05-04 16:14 40.69706 31.36724 26632 ft 441 kts 296°
2026-05-04 16:14 40.71582 31.29029 27398 ft 447 kts 296°
2026-05-04 16:15 40.74428 31.17274 27996 ft 443 kts 296°
2026-05-04 16:16 40.76294 31.09519 27970 ft 439 kts 295°
2026-05-04 16:16 40.79051 30.98078 27990 ft 435 kts 295°
2026-05-04 16:17 40.80872 30.90526 27991 ft 435 kts 295°
2026-05-04 16:18 40.83596 30.79101 27987 ft 435 kts 295°
2026-05-04 16:18 40.84499 30.75290 27984 ft 435 kts 295°
2026-05-04 16:19 40.86884 30.63494 28003 ft 457 kts 284°
2026-05-04 16:19 40.87690 30.55153 28013 ft 458 kts 284°
2026-05-04 16:20 40.90253 30.43430 28005 ft 421 kts 310°
2026-05-04 16:20 40.93801 30.37708 27209 ft 392 kts 320°
2026-05-04 16:21 40.99136 30.29795 24747 ft 376 kts 319°
2026-05-04 16:22 41.02574 30.24675 23072 ft 369 kts 319°
2026-05-04 16:22 41.07066 30.16795 21240 ft 354 kts 291°
2026-05-04 16:23 41.04473 30.07919 19384 ft 371 kts 225°
2026-05-04 16:24 40.97560 29.98429 16836 ft 344 kts 255°
2026-05-04 16:25 40.96883 29.92393 15554 ft 328 kts 271°
2026-05-04 16:26 40.96183 29.80577 13128 ft 315 kts 271°
2026-05-04 16:26 40.95685 29.71888 11157 ft 304 kts 270°
2026-05-04 16:27 40.95335 29.66384 11017 ft 299 kts 270°
2026-05-04 16:28 40.94825 29.58153 10966 ft 298 kts 270°
2026-05-04 16:28 40.94317 29.50029 9988 ft 293 kts 269°
2026-05-04 16:29 40.93659 29.39442 8714 ft 284 kts 270°
2026-05-04 16:30 40.93168 29.31749 7819 ft 276 kts 271°
2026-05-04 16:31 40.92844 29.26725 7237 ft 272 kts 271°
2026-05-04 16:31 40.92364 29.19381 6339 ft 263 kts 272°
2026-05-04 16:32 40.91894 29.12208 6009 ft 261 kts 272°
2026-05-04 16:33 40.91579 29.07421 6009 ft 257 kts 272°
2026-05-04 16:33 40.91318 29.03660 6028 ft 235 kts 272°
2026-05-04 16:34 40.91262 28.99505 6032 ft 223 kts 284°
2026-05-04 16:34 40.91453 28.97446 6036 ft 223 kts 284°
2026-05-04 16:35 40.92003 28.91261 4815 ft 225 kts 283°
2026-05-04 16:35 40.92541 28.85128 4030 ft 223 kts 283°
2026-05-04 16:36 40.92717 28.83112 4036 ft 224 kts 282°
2026-05-04 16:36 40.93726 28.79395 4033 ft 212 kts 315°
2026-05-04 16:37 40.96074 28.77187 4036 ft 208 kts 332°
2026-05-04 16:37 40.97329 28.76354 4031 ft 195 kts 346°
2026-05-04 16:37 40.99834 28.76168 4048 ft 164 kts 358°
2026-05-04 16:38 41.01844 28.76131 4042 ft 135 kts 358°
2026-05-04 16:39 41.05057 28.76070 4033 ft 155 kts 359°
2026-05-04 16:39 41.07208 28.76029 4010 ft 155 kts 359°
2026-05-04 16:40 41.09268 28.75991 3726 ft 144 kts 359°
2026-05-04 16:40 41.11275 28.75953 3340 ft 145 kts 359°
2026-05-04 16:41 41.13291 28.75915 2939 ft 145 kts 360°
2026-05-04 16:41 41.16071 28.75862 2394 ft 129 kts
2026-05-04 16:42 41.18755 28.75811 1868 ft 128 kts
2026-05-04 16:43 41.20530 28.75778 1505 ft 128 kts 360°
2026-05-04 16:43 41.22316 28.75736 1179 ft 127 kts 359°
2026-05-04 16:43 41.23201 28.75708 1004 ft 128 kts 359°
2026-05-04 16:44 41.26718 28.75661 310 ft 117 kts 356°
2026-05-04 16:45 41.27795 28.75637 277 ft 53 kts
2026-05-04 16:46 41.28160 28.75410 261 ft 1 kts 255°
2026-05-04 16:46 41.28156 28.75401 261 ft 0 kts 239°
2026-05-04 16:48 41.28112 28.75365 263 ft 0 kts 193°
2026-05-04 16:49 41.28110 28.75364 263 ft 0 kts 193°
2026-05-04 16:50 41.28105 28.75363 263 ft 0 kts 193°
2026-05-04 16:50 41.28098 28.75361 264 ft 1 kts 193°
2026-05-04 16:51 41.28089 28.75358 264 ft 1 kts 191°
2026-05-04 16:51 41.28085 28.75357 264 ft 1 kts 190°
2026-05-04 16:51 41.28076 28.75356 264 ft 2 kts 185°